owner,sensor,date,latitude,longitude,vertical_datum,sea_water_practical_salinity,qcFlag 
SCCF RECON,ioos:station:SCCF:13:1,2013-11-01T00:00:00Z,26.5255,-82.0032,2.702,23.38,1111122 
SCCF RECON,ioos:station:SCCF:13:1,2013-11-01T01:00:00Z,26.5255,-82.0032,2.801,26.15,1111122 
SCCF RECON,ioos:station:SCCF:13:1,2013-11-01T02:00:00Z,26.5255,-82.0032,2.879,27.13,1111122 
SCCF RECON,ioos:station:SCCF:13:1,2013-11-01T03:00:00Z,26.5255,-82.0032,2.935,29.12,1111122 
SCCF RECON,ioos:station:SCCF:13:1,2013-11-01T04:00:00Z,26.5255,-82.0032,2.99,30.32,1111122 
SCCF RECON,ioos:station:SCCF:13:1,2013-11-01T05:00:00Z,26.5255,-82.0032,2.98,30.98,1111122 
SCCF RECON,ioos:station:SCCF:13:1,2013-11-01T06:00:00Z,26.5255,-82.0032,2.88,30.91,1111122 
SCCF RECON,ioos:station:SCCF:13:1,2013-11-01T07:00:00Z,26.5255,-82.0032,2.747,30.92,1111122 
SCCF RECON,ioos:station:SCCF:13:1,2013-11-01T08:00:00Z,26.5255,-82.0032,2.64,27.57,1111122 
SCCF RECON,ioos:station:SCCF:13:1,2013-11-01T09:00:00Z,26.5255,-82.0032,2.55,24.05,1111122 
SCCF RECON,ioos:station:SCCF:13:1,2013-11-01T10:00:00Z,26.5255,-82.0032,2.476,22.47,1111122 
SCCF RECON,ioos:station:SCCF:13:1,2013-11-01T11:00:00Z,26.5255,-82.0032,2.42,21.36,1111122 
SCCF RECON,ioos:station:SCCF:13:1,2013-11-01T12:00:00Z,26.5255,-82.0032,2.453,20.51,1111122 
SCCF RECON,ioos:station:SCCF:13:1,2013-11-01T13:00:00Z,26.5255,-82.0032,2.601,19.38,1111122 
SCCF RECON,ioos:station:SCCF:13:1,2013-11-01T14:00:00Z,26.5255,-82.0032,2.715,20.79,1111122 
SCCF RECON,ioos:station:SCCF:13:1,2013-11-01T15:00:00Z,26.5255,-82.0032,2.77,23.37,1111122 
SCCF RECON,ioos:station:SCCF:13:1,2013-11-01T16:00:00Z,26.5255,-82.0032,2.827,27.11,1111122 
SCCF RECON,ioos:station:SCCF:13:1,2013-11-01T17:00:00Z,26.5255,-82.0032,2.856,29.07,1111122 
SCCF RECON,ioos:station:SCCF:13:1,2013-11-01T18:00:00Z,26.5255,-82.0032,2.84,29.71,1111122 
SCCF RECON,ioos:station:SCCF:13:1,2013-11-01T19:00:00Z,26.5255,-82.0032,2.76,29.79,1111122 
SCCF RECON,ioos:station:SCCF:13:1,2013-11-01T20:00:00Z,26.5255,-82.0032,2.69,29.88,1111122 
SCCF RECON,ioos:station:SCCF:13:1,2013-11-01T21:00:00Z,26.5255,-82.0032,2.619,28.72,1111122 
SCCF RECON,ioos:station:SCCF:13:1,2013-11-01T22:00:00Z,26.5255,-82.0032,2.56,25.83,1111122 
SCCF RECON,ioos:station:SCCF:13:1,2013-11-01T23:00:00Z,26.5255,-82.0032,2.537,24.72,1111122 
SCCF RECON,ioos:station:SCCF:13:1,2013-11-02T00:00:00Z,26.5255,-82.0032,2.595,23.01,1111122 
SCCF RECON,ioos:station:SCCF:13:1,2013-11-02T01:00:00Z,26.5255,-82.0032,2.736,23.86,1111122 
SCCF RECON,ioos:station:SCCF:13:1,2013-11-02T02:00:00Z,26.5255,-82.0032,2.84,26.44,1111122 
SCCF RECON,ioos:station:SCCF:13:1,2013-11-02T03:00:00Z,26.5255,-82.0032,2.91,28.13,1111122 
SCCF RECON,ioos:station:SCCF:13:1,2013-11-02T04:00:00Z,26.5255,-82.0032,2.96,29.68,1111122 
SCCF RECON,ioos:station:SCCF:13:1,2013-11-02T05:00:00Z,26.5255,-82.0032,2.98,30.94,1111122 
SCCF RECON,ioos:station:SCCF:13:1,2013-11-02T06:00:00Z,26.5255,-82.0032,2.93,31.22,1111122 
SCCF RECON,ioos:station:SCCF:13:1,2013-11-02T07:00:00Z,26.5255,-82.0032,2.805,31.26,1111122 
SCCF RECON,ioos:station:SCCF:13:1,2013-11-02T08:00:00Z,26.5255,-82.0032,2.67,30.14,1111122 
SCCF RECON,ioos:station:SCCF:13:1,2013-11-02T09:00:00Z,26.5255,-82.0032,2.57,27.33,1111122 
SCCF RECON,ioos:station:SCCF:13:1,2013-11-02T10:00:00Z,26.5255,-82.0032,2.475,24.72,1111122 
SCCF RECON,ioos:station:SCCF:13:1,2013-11-02T11:00:00Z,26.5255,-82.0032,2.395,23.38,1111122 
SCCF RECON,ioos:station:SCCF:13:1,2013-11-02T12:00:00Z,26.5255,-82.0032,2.38,22.18,1111122 
SCCF RECON,ioos:station:SCCF:13:1,2013-11-02T13:00:00Z,26.5255,-82.0032,2.481,21.11,1111122 
SCCF RECON,ioos:station:SCCF:13:1,2013-11-02T14:00:00Z,26.5255,-82.0032,2.63,20.47,1111122 
SCCF RECON,ioos:station:SCCF:13:1,2013-11-02T15:00:00Z,26.5255,-82.0032,2.706,23.17,1111122 
SCCF RECON,ioos:station:SCCF:13:1,2013-11-02T16:00:00Z,26.5255,-82.0032,2.77,25.54,1111122 
SCCF RECON,ioos:station:SCCF:13:1,2013-11-02T17:00:00Z,26.5255,-82.0032,2.833,28.68,1111122 
SCCF RECON,ioos:station:SCCF:13:1,2013-11-02T18:00:00Z,26.5255,-82.0032,2.87,29.42,1111122 
SCCF RECON,ioos:station:SCCF:13:1,2013-11-02T19:00:00Z,26.5255,-82.0032,2.741,29.65,1111122 
SCCF RECON,ioos:station:SCCF:13:1,2013-11-02T20:00:00Z,26.5255,-82.0032,2.59,29.24,1111122 
SCCF RECON,ioos:station:SCCF:13:1,2013-11-02T21:00:00Z,26.5255,-82.0032,2.525,26.66,1111122 
SCCF RECON,ioos:station:SCCF:13:1,2013-11-02T22:00:00Z,26.5255,-82.0032,2.51,23.3,1111122 
SCCF RECON,ioos:station:SCCF:13:1,2013-11-02T23:00:00Z,26.5255,-82.0032,2.477,20.76,1111122 
SCCF RECON,ioos:station:SCCF:13:1,2013-11-03T00:00:00Z,26.5255,-82.0032,2.44,20.15,1111122 
SCCF RECON,ioos:station:SCCF:13:1,2013-11-03T01:00:00Z,26.5255,-82.0032,2.47,19.26,1111122 
SCCF RECON,ioos:station:SCCF:13:1,2013-11-03T02:00:00Z,26.5255,-82.0032,2.61,18.76,1111122 
SCCF RECON,ioos:station:SCCF:13:1,2013-11-03T03:00:00Z,26.5255,-82.0032,2.71,21.71,1111122 
SCCF RECON,ioos:station:SCCF:13:1,2013-11-03T04:00:00Z,26.5255,-82.0032,2.79,24.67,1111122 
SCCF RECON,ioos:station:SCCF:13:1,2013-11-03T05:00:00Z,26.5255,-82.0032,2.84,27.22,1111122 
SCCF RECON,ioos:station:SCCF:13:1,2013-11-03T06:00:00Z,26.5255,-82.0032,2.8,28.31,1111122 
SCCF RECON,ioos:station:SCCF:13:1,2013-11-03T07:00:00Z,26.5255,-82.0032,2.67,29.77,1111122 
SCCF RECON,ioos:station:SCCF:13:1,2013-11-03T08:00:00Z,26.5255,-82.0032,2.54,27.43,1111122 
SCCF RECON,ioos:station:SCCF:13:1,2013-11-03T09:00:00Z,26.5255,-82.0032,2.44,24.27,1111122 
SCCF RECON,ioos:station:SCCF:13:1,2013-11-03T10:00:00Z,26.5255,-82.0032,2.35,21.27,1111122 
SCCF RECON,ioos:station:SCCF:13:1,2013-11-03T11:00:00Z,26.5255,-82.0032,2.26,18.76,1111122 
SCCF RECON,ioos:station:SCCF:13:1,2013-11-03T12:00:00Z,26.5255,-82.0032,2.183,17.25,1111122 
SCCF RECON,ioos:station:SCCF:13:1,2013-11-03T13:00:00Z,26.5255,-82.0032,2.142,16.81,1111122 
SCCF RECON,ioos:station:SCCF:13:1,2013-11-03T14:00:00Z,26.5255,-82.0032,2.17,15.94,1111122 
SCCF RECON,ioos:station:SCCF:13:1,2013-11-03T15:00:00Z,26.5255,-82.0032,2.3,15.24,1111122 
SCCF RECON,ioos:station:SCCF:13:1,2013-11-03T16:00:00Z,26.5255,-82.0032,2.405,14.78,1111122 
SCCF RECON,ioos:station:SCCF:13:1,2013-11-03T17:00:00Z,26.5255,-82.0032,2.487,15.65,1111122 
SCCF RECON,ioos:station:SCCF:13:1,2013-11-03T18:00:00Z,26.5255,-82.0032,2.537,19.68,1111122 
SCCF RECON,ioos:station:SCCF:13:1,2013-11-03T19:00:00Z,26.5255,-82.0032,2.55,22.6,1111122 
SCCF RECON,ioos:station:SCCF:13:1,2013-11-03T20:00:00Z,26.5255,-82.0032,2.503,25.78,1111122 
SCCF RECON,ioos:station:SCCF:13:1,2013-11-03T21:00:00Z,26.5255,-82.0032,2.458,26.36,1111122 
SCCF RECON,ioos:station:SCCF:13:1,2013-11-03T22:00:00Z,26.5255,-82.0032,2.41,26.18,1111122 
SCCF RECON,ioos:station:SCCF:13:1,2013-11-03T23:00:00Z,26.5255,-82.0032,2.37,24.14,1111122 
SCCF RECON,ioos:station:SCCF:13:1,2013-11-04T00:00:00Z,26.5255,-82.0032,2.37,20.1,1111122 
SCCF RECON,ioos:station:SCCF:13:1,2013-11-04T01:00:00Z,26.5255,-82.0032,2.42,19.47,1111122 
SCCF RECON,ioos:station:SCCF:13:1,2013-11-04T02:00:00Z,26.5255,-82.0032,2.512,22.29,1111122 
SCCF RECON,ioos:station:SCCF:13:1,2013-11-04T03:00:00Z,26.5255,-82.0032,2.621,23.77,1111122 
SCCF RECON,ioos:station:SCCF:13:1,2013-11-04T04:00:00Z,26.5255,-82.0032,2.682,25.12,1111122 
SCCF RECON,ioos:station:SCCF:13:1,2013-11-04T05:00:00Z,26.5255,-82.0032,2.73,25.9,1111122 
SCCF RECON,ioos:station:SCCF:13:1,2013-11-04T06:00:00Z,26.5255,-82.0032,2.74,27.29,1111122 
SCCF RECON,ioos:station:SCCF:13:1,2013-11-04T07:00:00Z,26.5255,-82.0032,2.661,28.4,1111122 
SCCF RECON,ioos:station:SCCF:13:1,2013-11-04T08:00:00Z,26.5255,-82.0032,2.522,28.39,1111122 
SCCF RECON,ioos:station:SCCF:13:1,2013-11-04T09:00:00Z,26.5255,-82.0032,2.4,25.59,1111122 
SCCF RECON,ioos:station:SCCF:13:1,2013-11-04T10:00:00Z,26.5255,-82.0032,2.301,18.67,1111122 
SCCF RECON,ioos:station:SCCF:13:1,2013-11-04T11:00:00Z,26.5255,-82.0032,2.22,19.37,1111122 
SCCF RECON,ioos:station:SCCF:13:1,2013-11-04T12:00:00Z,26.5255,-82.0032,2.14,17.86,1111122 
SCCF RECON,ioos:station:SCCF:13:1,2013-11-04T13:00:00Z,26.5255,-82.0032,2.08,17.1,1111122 
SCCF RECON,ioos:station:SCCF:13:1,2013-11-04T14:00:00Z,26.5255,-82.0032,2.089,16.15,1111122 
SCCF RECON,ioos:station:SCCF:13:1,2013-11-04T15:00:00Z,26.5255,-82.0032,2.219,15.29,1111122 
SCCF RECON,ioos:station:SCCF:13:1,2013-11-04T16:00:00Z,26.5255,-82.0032,2.333,14.86,1111122 
SCCF RECON,ioos:station:SCCF:13:1,2013-11-04T17:00:00Z,26.5255,-82.0032,2.407,17.3,1111122 
SCCF RECON,ioos:station:SCCF:13:1,2013-11-04T18:00:00Z,26.5255,-82.0032,2.478,19.48,1111122 
SCCF RECON,ioos:station:SCCF:13:1,2013-11-04T19:00:00Z,26.5255,-82.0032,2.548,23.41,1111122 
SCCF RECON,ioos:station:SCCF:13:1,2013-11-04T20:00:00Z,26.5255,-82.0032,2.586,25.54,1111122 
SCCF RECON,ioos:station:SCCF:13:1,2013-11-04T21:00:00Z,26.5255,-82.0032,2.56,25.46,1111122 
SCCF RECON,ioos:station:SCCF:13:1,2013-11-04T22:00:00Z,26.5255,-82.0032,2.506,25.53,1111122 
SCCF RECON,ioos:station:SCCF:13:1,2013-11-04T23:00:00Z,26.5255,-82.0032,2.43,25.73,1111122 
SCCF RECON,ioos:station:SCCF:13:1,2013-11-05T00:00:00Z,26.5255,-82.0032,2.381,24.99,1111122 
SCCF RECON,ioos:station:SCCF:13:1,2013-11-05T01:00:00Z,26.5255,-82.0032,2.367,21.85,1111122 
SCCF RECON,ioos:station:SCCF:13:1,2013-11-05T02:00:00Z,26.5255,-82.0032,2.438,20.56,1111122 
SCCF RECON,ioos:station:SCCF:13:1,2013-11-05T03:00:00Z,26.5255,-82.0032,2.56,23.64,1111122 
SCCF RECON,ioos:station:SCCF:13:1,2013-11-05T04:00:00Z,26.5255,-82.0032,2.671,26.0,1111122 
SCCF RECON,ioos:station:SCCF:13:1,2013-11-05T05:00:00Z,26.5255,-82.0032,2.724,26.33,1111122 
SCCF RECON,ioos:station:SCCF:13:1,2013-11-05T06:00:00Z,26.5255,-82.0032,2.75,27.04,1111122 
SCCF RECON,ioos:station:SCCF:13:1,2013-11-05T07:00:00Z,26.5255,-82.0032,2.739,28.28,1111122 
SCCF RECON,ioos:station:SCCF:13:1,2013-11-05T08:00:00Z,26.5255,-82.0032,2.66,28.76,1111122 
SCCF RECON,ioos:station:SCCF:13:1,2013-11-05T09:00:00Z,26.5255,-82.0032,2.54,28.57,1111122 
SCCF RECON,ioos:station:SCCF:13:1,2013-11-05T10:00:00Z,26.5255,-82.0032,2.44,25.61,1111122 
SCCF RECON,ioos:station:SCCF:13:1,2013-11-05T11:00:00Z,26.5255,-82.0032,2.34,20.14,1111122 
SCCF RECON,ioos:station:SCCF:13:1,2013-11-05T12:00:00Z,26.5255,-82.0032,2.27,20.85,1111122 
SCCF RECON,ioos:station:SCCF:13:1,2013-11-05T13:00:00Z,26.5255,-82.0032,2.194,19.8,1111122 
SCCF RECON,ioos:station:SCCF:13:1,2013-11-05T14:00:00Z,26.5255,-82.0032,2.14,18.59,1111122 
SCCF RECON,ioos:station:SCCF:13:1,2013-11-05T15:00:00Z,26.5255,-82.0032,2.18,17.79,1111122 
SCCF RECON,ioos:station:SCCF:13:1,2013-11-05T16:00:00Z,26.5255,-82.0032,2.34,17.1,1111122 
SCCF RECON,ioos:station:SCCF:13:1,2013-11-05T17:00:00Z,26.5255,-82.0032,2.43,17.82,1111122 
SCCF RECON,ioos:station:SCCF:13:1,2013-11-05T18:00:00Z,26.5255,-82.0032,2.492,20.07,1111122 
SCCF RECON,ioos:station:SCCF:13:1,2013-11-05T19:00:00Z,26.5255,-82.0032,2.579,23.41,1111122 
SCCF RECON,ioos:station:SCCF:13:1,2013-11-05T20:00:00Z,26.5255,-82.0032,2.645,26.25,1111122 
SCCF RECON,ioos:station:SCCF:13:1,2013-11-05T21:00:00Z,26.5255,-82.0032,2.652,26.45,1111122 
SCCF RECON,ioos:station:SCCF:13:1,2013-11-05T22:00:00Z,26.5255,-82.0032,2.6,27.15,1111122 
SCCF RECON,ioos:station:SCCF:13:1,2013-11-05T23:00:00Z,26.5255,-82.0032,2.519,27.18,1111122 
SCCF RECON,ioos:station:SCCF:13:1,2013-11-06T00:00:00Z,26.5255,-82.0032,2.473,27.05,1111122 
SCCF RECON,ioos:station:SCCF:13:1,2013-11-06T01:00:00Z,26.5255,-82.0032,2.46,26.84,1111122 
SCCF RECON,ioos:station:SCCF:13:1,2013-11-06T02:00:00Z,26.5255,-82.0032,2.49,25.73,1111122 
SCCF RECON,ioos:station:SCCF:13:1,2013-11-06T03:00:00Z,26.5255,-82.0032,2.59,24.98,1111122 
SCCF RECON,ioos:station:SCCF:13:1,2013-11-06T04:00:00Z,26.5255,-82.0032,2.71,26.75,1111122 
SCCF RECON,ioos:station:SCCF:13:1,2013-11-06T05:00:00Z,26.5255,-82.0032,2.79,27.47,1111122 
SCCF RECON,ioos:station:SCCF:13:1,2013-11-06T06:00:00Z,26.5255,-82.0032,2.85,28.25,1111122 
SCCF RECON,ioos:station:SCCF:13:1,2013-11-06T07:00:00Z,26.5255,-82.0032,2.879,29.33,1111122 
SCCF RECON,ioos:station:SCCF:13:1,2013-11-06T08:00:00Z,26.5255,-82.0032,2.84,29.59,1111122 
SCCF RECON,ioos:station:SCCF:13:1,2013-11-06T09:00:00Z,26.5255,-82.0032,2.8,29.63,1111122 
SCCF RECON,ioos:station:SCCF:13:1,2013-11-06T10:00:00Z,26.5255,-82.0032,2.69,29.42,1111122 
SCCF RECON,ioos:station:SCCF:13:1,2013-11-06T11:00:00Z,26.5255,-82.0032,2.56,27.53,1111122 
SCCF RECON,ioos:station:SCCF:13:1,2013-11-06T12:00:00Z,26.5255,-82.0032,2.47,23.31,1111122 
SCCF RECON,ioos:station:SCCF:13:1,2013-11-06T13:00:00Z,26.5255,-82.0032,2.38,23.44,1111122 
SCCF RECON,ioos:station:SCCF:13:1,2013-11-06T14:00:00Z,26.5255,-82.0032,2.29,21.71,1111122 
SCCF RECON,ioos:station:SCCF:13:1,2013-11-06T15:00:00Z,26.5255,-82.0032,2.238,21.08,1111122 
SCCF RECON,ioos:station:SCCF:13:1,2013-11-06T16:00:00Z,26.5255,-82.0032,2.306,19.87,1111122 
SCCF RECON,ioos:station:SCCF:13:1,2013-11-06T17:00:00Z,26.5255,-82.0032,2.462,19.14,1111122 
SCCF RECON,ioos:station:SCCF:13:1,2013-11-06T18:00:00Z,26.5255,-82.0032,2.54,21.1,1111122 
SCCF RECON,ioos:station:SCCF:13:1,2013-11-06T19:00:00Z,26.5255,-82.0032,2.61,23.09,1111122 
SCCF RECON,ioos:station:SCCF:13:1,2013-11-06T20:00:00Z,26.5255,-82.0032,2.69,26.69,1111122 
SCCF RECON,ioos:station:SCCF:13:1,2013-11-06T21:00:00Z,26.5255,-82.0032,2.75,27.78,1111122 
SCCF RECON,ioos:station:SCCF:13:1,2013-11-06T22:00:00Z,26.5255,-82.0032,2.76,27.95,1111122 
SCCF RECON,ioos:station:SCCF:13:1,2013-11-06T23:00:00Z,26.5255,-82.0032,2.7,28.39,1111122 
SCCF RECON,ioos:station:SCCF:13:1,2013-11-07T00:00:00Z,26.5255,-82.0032,2.678,28.43,1111122 
SCCF RECON,ioos:station:SCCF:13:1,2013-11-07T01:00:00Z,26.5255,-82.0032,2.66,28.74,1111122 
SCCF RECON,ioos:station:SCCF:13:1,2013-11-07T02:00:00Z,26.5255,-82.0032,2.65,28.6,1111122 
SCCF RECON,ioos:station:SCCF:13:1,2013-11-07T03:00:00Z,26.5255,-82.0032,2.67,28.03,1111122 
SCCF RECON,ioos:station:SCCF:13:1,2013-11-07T04:00:00Z,26.5255,-82.0032,2.76,27.91,1111122 
SCCF RECON,ioos:station:SCCF:13:1,2013-11-07T05:00:00Z,26.5255,-82.0032,2.85,27.86,1111122 
SCCF RECON,ioos:station:SCCF:13:1,2013-11-07T06:00:00Z,26.5255,-82.0032,2.91,27.84,1111122 
SCCF RECON,ioos:station:SCCF:13:1,2013-11-07T07:00:00Z,26.5255,-82.0032,2.94,29.36,1111122 
SCCF RECON,ioos:station:SCCF:13:1,2013-11-07T08:00:00Z,26.5255,-82.0032,2.96,30.34,1111122 
SCCF RECON,ioos:station:SCCF:13:1,2013-11-07T09:00:00Z,26.5255,-82.0032,2.94,30.68,1111122 
SCCF RECON,ioos:station:SCCF:13:1,2013-11-07T10:00:00Z,26.5255,-82.0032,2.85,30.71,1111122 
SCCF RECON,ioos:station:SCCF:13:1,2013-11-07T11:00:00Z,26.5255,-82.0032,2.72,29.87,1111122 
SCCF RECON,ioos:station:SCCF:13:1,2013-11-07T12:00:00Z,26.5255,-82.0032,2.62,25.05,1111122 
SCCF RECON,ioos:station:SCCF:13:1,2013-11-07T13:00:00Z,26.5255,-82.0032,2.53,24.17,1111122 
SCCF RECON,ioos:station:SCCF:13:1,2013-11-07T14:00:00Z,26.5255,-82.0032,2.43,23.58,1111122 
SCCF RECON,ioos:station:SCCF:13:1,2013-11-07T15:00:00Z,26.5255,-82.0032,2.351,22.64,1111122 
SCCF RECON,ioos:station:SCCF:13:1,2013-11-07T16:00:00Z,26.5255,-82.0032,2.31,21.55,1111122 
SCCF RECON,ioos:station:SCCF:13:1,2013-11-07T17:00:00Z,26.5255,-82.0032,2.37,20.46,1111122 
SCCF RECON,ioos:station:SCCF:13:1,2013-11-07T18:00:00Z,26.5255,-82.0032,2.51,19.13,1111122 
SCCF RECON,ioos:station:SCCF:13:1,2013-11-07T19:00:00Z,26.5255,-82.0032,2.58,20.19,1111122 
SCCF RECON,ioos:station:SCCF:13:1,2013-11-07T20:00:00Z,26.5255,-82.0032,2.62,22.59,1111122 
SCCF RECON,ioos:station:SCCF:13:1,2013-11-07T21:00:00Z,26.5255,-82.0032,2.66,24.2,1111122 
SCCF RECON,ioos:station:SCCF:13:1,2013-11-07T22:00:00Z,26.5255,-82.0032,2.71,27.28,1111122 
SCCF RECON,ioos:station:SCCF:13:1,2013-11-07T23:00:00Z,26.5255,-82.0032,2.702,27.88,1111122 
SCCF RECON,ioos:station:SCCF:13:1,2013-11-08T00:00:00Z,26.5255,-82.0032,2.65,28.18,1111122 
SCCF RECON,ioos:station:SCCF:13:1,2013-11-08T01:00:00Z,26.5255,-82.0032,2.59,28.14,1111122 
SCCF RECON,ioos:station:SCCF:13:1,2013-11-08T02:00:00Z,26.5255,-82.0032,2.55,26.91,1111122 
SCCF RECON,ioos:station:SCCF:13:1,2013-11-08T03:00:00Z,26.5255,-82.0032,2.543,23.9,1111122 
SCCF RECON,ioos:station:SCCF:13:1,2013-11-08T04:00:00Z,26.5255,-82.0032,2.56,21.78,1111122 
SCCF RECON,ioos:station:SCCF:13:1,2013-11-08T05:00:00Z,26.5255,-82.0032,2.62,21.98,1111122 
SCCF RECON,ioos:station:SCCF:13:1,2013-11-08T06:00:00Z,26.5255,-82.0032,2.71,24.6,1111122 
SCCF RECON,ioos:station:SCCF:13:1,2013-11-08T07:00:00Z,26.5255,-82.0032,2.78,26.58,1111122 
SCCF RECON,ioos:station:SCCF:13:1,2013-11-08T08:00:00Z,26.5255,-82.0032,2.829,27.08,1111122 
SCCF RECON,ioos:station:SCCF:13:1,2013-11-08T09:00:00Z,26.5255,-82.0032,2.82,28.02,1111122 
SCCF RECON,ioos:station:SCCF:13:1,2013-11-08T10:00:00Z,26.5255,-82.0032,2.78,28.87,1111122 
SCCF RECON,ioos:station:SCCF:13:1,2013-11-08T11:00:00Z,26.5255,-82.0032,2.696,29.07,1111122 
SCCF RECON,ioos:station:SCCF:13:1,2013-11-08T12:00:00Z,26.5255,-82.0032,2.58,27.37,1111122 
SCCF RECON,ioos:station:SCCF:13:1,2013-11-08T13:00:00Z,26.5255,-82.0032,2.481,21.49,1111122 
SCCF RECON,ioos:station:SCCF:13:1,2013-11-08T14:00:00Z,26.5255,-82.0032,2.398,21.08,1111122 
SCCF RECON,ioos:station:SCCF:13:1,2013-11-08T15:00:00Z,26.5255,-82.0032,2.307,19.65,1111122 
SCCF RECON,ioos:station:SCCF:13:1,2013-11-08T16:00:00Z,26.5255,-82.0032,2.231,19.3,1111122 
SCCF RECON,ioos:station:SCCF:13:1,2013-11-08T17:00:00Z,26.5255,-82.0032,2.2,18.57,1111122 
SCCF RECON,ioos:station:SCCF:13:1,2013-11-08T18:00:00Z,26.5255,-82.0032,2.28,17.61,1111122 
SCCF RECON,ioos:station:SCCF:13:1,2013-11-08T19:00:00Z,26.5255,-82.0032,2.39,16.73,1111122 
SCCF RECON,ioos:station:SCCF:13:1,2013-11-08T20:00:00Z,26.5255,-82.0032,2.45,16.96,1111122 
SCCF RECON,ioos:station:SCCF:13:1,2013-11-08T21:00:00Z,26.5255,-82.0032,2.5,18.9,1111122 
SCCF RECON,ioos:station:SCCF:13:1,2013-11-08T22:00:00Z,26.5255,-82.0032,2.56,21.14,1111122 
SCCF RECON,ioos:station:SCCF:13:1,2013-11-08T23:00:00Z,26.5255,-82.0032,2.589,24.47,1111122 
SCCF RECON,ioos:station:SCCF:13:1,2013-11-09T00:00:00Z,26.5255,-82.0032,2.579,26.17,1111122 
SCCF RECON,ioos:station:SCCF:13:1,2013-11-09T01:00:00Z,26.5255,-82.0032,2.549,26.65,1111122 
SCCF RECON,ioos:station:SCCF:13:1,2013-11-09T02:00:00Z,26.5255,-82.0032,2.48,26.01,1111122 
SCCF RECON,ioos:station:SCCF:13:1,2013-11-09T03:00:00Z,26.5255,-82.0032,2.42,22.53,1111122 
SCCF RECON,ioos:station:SCCF:13:1,2013-11-09T04:00:00Z,26.5255,-82.0032,2.38,18.79,1111122 
SCCF RECON,ioos:station:SCCF:13:1,2013-11-09T05:00:00Z,26.5255,-82.0032,2.4,16.92,1111122 
SCCF RECON,ioos:station:SCCF:13:1,2013-11-09T06:00:00Z,26.5255,-82.0032,2.45,16.96,1111122 
SCCF RECON,ioos:station:SCCF:13:1,2013-11-09T07:00:00Z,26.5255,-82.0032,2.49,20.94,1111122 
SCCF RECON,ioos:station:SCCF:13:1,2013-11-09T08:00:00Z,26.5255,-82.0032,2.58,22.15,1111122 
SCCF RECON,ioos:station:SCCF:13:1,2013-11-09T09:00:00Z,26.5255,-82.0032,2.657,24.58,1111122 
SCCF RECON,ioos:station:SCCF:13:1,2013-11-09T10:00:00Z,26.5255,-82.0032,2.699,25.68,1111122 
SCCF RECON,ioos:station:SCCF:13:1,2013-11-09T11:00:00Z,26.5255,-82.0032,2.68,26.62,1111122 
SCCF RECON,ioos:station:SCCF:13:1,2013-11-09T12:00:00Z,26.5255,-82.0032,2.62,28.21,1111122 
SCCF RECON,ioos:station:SCCF:13:1,2013-11-09T13:00:00Z,26.5255,-82.0032,2.531,28.25,1111122 
SCCF RECON,ioos:station:SCCF:13:1,2013-11-09T14:00:00Z,26.5255,-82.0032,2.45,24.83,1111122 
SCCF RECON,ioos:station:SCCF:13:1,2013-11-09T15:00:00Z,26.5255,-82.0032,2.372,18.83,1111122 
SCCF RECON,ioos:station:SCCF:13:1,2013-11-09T16:00:00Z,26.5255,-82.0032,2.301,18.85,1111122 
SCCF RECON,ioos:station:SCCF:13:1,2013-11-09T17:00:00Z,26.5255,-82.0032,2.24,17.98,1111122 
SCCF RECON,ioos:station:SCCF:13:1,2013-11-09T18:00:00Z,26.5255,-82.0032,2.24,17.36,1111122 
SCCF RECON,ioos:station:SCCF:13:1,2013-11-09T19:00:00Z,26.5255,-82.0032,2.33,16.91,1111122 
SCCF RECON,ioos:station:SCCF:13:1,2013-11-09T20:00:00Z,26.5255,-82.0032,2.43,16.6,1111122 
SCCF RECON,ioos:station:SCCF:13:1,2013-11-09T21:00:00Z,26.5255,-82.0032,2.49,19.69,1111122 
SCCF RECON,ioos:station:SCCF:13:1,2013-11-09T22:00:00Z,26.5255,-82.0032,2.55,22.06,1111122 
SCCF RECON,ioos:station:SCCF:13:1,2013-11-09T23:00:00Z,26.5255,-82.0032,2.6,25.07,1111122 
SCCF RECON,ioos:station:SCCF:13:1,2013-11-10T00:00:00Z,26.5255,-82.0032,2.64,27.14,1111122 
SCCF RECON,ioos:station:SCCF:13:1,2013-11-10T01:00:00Z,26.5255,-82.0032,2.66,27.41,1111122 
SCCF RECON,ioos:station:SCCF:13:1,2013-11-10T02:00:00Z,26.5255,-82.0032,2.634,27.76,1111122 
SCCF RECON,ioos:station:SCCF:13:1,2013-11-10T03:00:00Z,26.5255,-82.0032,2.59,27.98,1111122 
SCCF RECON,ioos:station:SCCF:13:1,2013-11-10T04:00:00Z,26.5255,-82.0032,2.55,28.02,1111122 
SCCF RECON,ioos:station:SCCF:13:1,2013-11-10T05:00:00Z,26.5255,-82.0032,2.5,27.86,1111122 
SCCF RECON,ioos:station:SCCF:13:1,2013-11-10T06:00:00Z,26.5255,-82.0032,2.46,25.87,1111122 
SCCF RECON,ioos:station:SCCF:13:1,2013-11-10T07:00:00Z,26.5255,-82.0032,2.51,23.33,1111122 
SCCF RECON,ioos:station:SCCF:13:1,2013-11-10T08:00:00Z,26.5255,-82.0032,2.61,24.09,1111122 
SCCF RECON,ioos:station:SCCF:13:1,2013-11-10T09:00:00Z,26.5255,-82.0032,2.69,26.67,1111122 
SCCF RECON,ioos:station:SCCF:13:1,2013-11-10T10:00:00Z,26.5255,-82.0032,2.75,27.12,1111122 
SCCF RECON,ioos:station:SCCF:13:1,2013-11-10T11:00:00Z,26.5255,-82.0032,2.773,27.96,1111122 
SCCF RECON,ioos:station:SCCF:13:1,2013-11-10T12:00:00Z,26.5255,-82.0032,2.8,28.86,1111122 
SCCF RECON,ioos:station:SCCF:13:1,2013-11-10T13:00:00Z,26.5255,-82.0032,2.785,29.66,1111122 
SCCF RECON,ioos:station:SCCF:13:1,2013-11-10T14:00:00Z,26.5255,-82.0032,2.691,29.33,1111122 
SCCF RECON,ioos:station:SCCF:13:1,2013-11-10T15:00:00Z,26.5255,-82.0032,2.602,27.59,1111122 
SCCF RECON,ioos:station:SCCF:13:1,2013-11-10T16:00:00Z,26.5255,-82.0032,2.52,22.89,1111122 
SCCF RECON,ioos:station:SCCF:13:1,2013-11-10T17:00:00Z,26.5255,-82.0032,2.442,20.63,1111122 
SCCF RECON,ioos:station:SCCF:13:1,2013-11-10T18:00:00Z,26.5255,-82.0032,2.38,20.38,1111122 
SCCF RECON,ioos:station:SCCF:13:1,2013-11-10T19:00:00Z,26.5255,-82.0032,2.366,19.49,1111122 
SCCF RECON,ioos:station:SCCF:13:1,2013-11-10T20:00:00Z,26.5255,-82.0032,2.44,19.11,1111122 
SCCF RECON,ioos:station:SCCF:13:1,2013-11-10T21:00:00Z,26.5255,-82.0032,2.53,18.92,1111122 
SCCF RECON,ioos:station:SCCF:13:1,2013-11-10T22:00:00Z,26.5255,-82.0032,2.6,21.62,1111122 
SCCF RECON,ioos:station:SCCF:13:1,2013-11-10T23:00:00Z,26.5255,-82.0032,2.65,24.4,1111122 
SCCF RECON,ioos:station:SCCF:13:1,2013-11-11T00:00:00Z,26.5255,-82.0032,2.7,26.29,1111122 
SCCF RECON,ioos:station:SCCF:13:1,2013-11-11T01:00:00Z,26.5255,-82.0032,2.74,27.67,1111122 
SCCF RECON,ioos:station:SCCF:13:1,2013-11-11T02:00:00Z,26.5255,-82.0032,2.75,28.96,1111122 
SCCF RECON,ioos:station:SCCF:13:1,2013-11-11T03:00:00Z,26.5255,-82.0032,2.71,29.18,1111122 
SCCF RECON,ioos:station:SCCF:13:1,2013-11-11T04:00:00Z,26.5255,-82.0032,2.639,29.42,1111122 
SCCF RECON,ioos:station:SCCF:13:1,2013-11-11T05:00:00Z,26.5255,-82.0032,2.55,27.15,1111122 
SCCF RECON,ioos:station:SCCF:13:1,2013-11-11T06:00:00Z,26.5255,-82.0032,2.48,22.03,1111122 
SCCF RECON,ioos:station:SCCF:13:1,2013-11-11T07:00:00Z,26.5255,-82.0032,2.429,19.93,1111122 
SCCF RECON,ioos:station:SCCF:13:1,2013-11-11T08:00:00Z,26.5255,-82.0032,2.43,20.17,1111122 
SCCF RECON,ioos:station:SCCF:13:1,2013-11-11T09:00:00Z,26.5255,-82.0032,2.49,18.93,1111122 
SCCF RECON,ioos:station:SCCF:13:1,2013-11-11T10:00:00Z,26.5255,-82.0032,2.57,19.32,1111122 
SCCF RECON,ioos:station:SCCF:13:1,2013-11-11T11:00:00Z,26.5255,-82.0032,2.63,24.38,1111122 
SCCF RECON,ioos:station:SCCF:13:1,2013-11-11T12:00:00Z,26.5255,-82.0032,2.68,25.02,1111122 
SCCF RECON,ioos:station:SCCF:13:1,2013-11-11T13:00:00Z,26.5255,-82.0032,2.727,26.72,1111122 
SCCF RECON,ioos:station:SCCF:13:1,2013-11-11T14:00:00Z,26.5255,-82.0032,2.725,27.93,1111122 
SCCF RECON,ioos:station:SCCF:13:1,2013-11-11T15:00:00Z,26.5255,-82.0032,2.64,28.78,1111122 
SCCF RECON,ioos:station:SCCF:13:1,2013-11-11T16:00:00Z,26.5255,-82.0032,2.54,27.39,1111122 
SCCF RECON,ioos:station:SCCF:13:1,2013-11-11T17:00:00Z,26.5255,-82.0032,2.479,23.76,1111122 
SCCF RECON,ioos:station:SCCF:13:1,2013-11-11T18:00:00Z,26.5255,-82.0032,2.411,19.88,1111122 